Home > Time Zones > World Clock > Weather > Chile > Arica > Past weeks

Flag for Chile Weather past 2 weeks in Arica, Chile

Now
68 °F

Sunny.


Feels Like: 68 °F
Forecast: N/A
Wind: 9 mph from South

Location: Arica Airport

Current Time: May 27, 2015 at 8:02:17 PM

Latest Report: May 27, 2015 at 7:00 PM


Visibility: 10 mi

Pressure: 29.92 "Hg

Humidity: 73%

Dew point: 59 °F

Location of AricaLocation

Historic Weather in Arica — Graph

°F

Arica temperature yesterday

Maximum temperature yesterday: 70 °F (at 11:00 AM)
Minimum temperature yesterday: 63 °F (at 3:00 AM)
Average temperature yesterday: 67 °F

Past Weeks' High & Low Weather Summary

 TemperatureHumidityPressure
High73 °F (May 13, 1:00 PM)100% (May 16, 3:00 AM)30.12 "Hg (May 16, 3:00 AM)
Low52 °F (May 16, 3:00 AM)47% (May 23, 2:00 PM)29.86 "Hg (May 13, 3:00 PM)
Average68 °F70%29.97 "Hg
* Reported May 12 7:00 PM — May 27 7:00 PM, Arica, Weather by CustomWeather, © 2015

Note: Actual official high and low records may vary slightly from our data, if they occured in-between our weather recording intervals... More about our weather records

Advertising

Arica weather history for previous 24 hours

 ConditionsComfort  
Time TempWeatherWind HumidityBarometerVisibility
7:00 PM
Wed, May 27
68 °FSunny.9 mph73%29.92 "Hg10 mi
6:00 PM70 °FSunny.13 mph69%29.89 "Hg10 mi
5:00 PM70 °FSunny.13 mph64%29.89 "Hg10 mi
4:00 PM72 °FSunny.15 mph61%29.92 "Hg10 mi
3:00 PM72 °FSunny.13 mph65%29.92 "Hg10 mi
2:00 PM70 °FPartly sunny.12 mph69%29.95 "HgN/A
1:00 PM70 °FPartly sunny.9 mph73%29.98 "HgN/A
11:00 AM70 °FOvercast.6 mph73%30.01 "HgN/A
10:00 AM68 °FOvercast.6 mph78%30.01 "HgN/A
9:00 AM66 °FOvercast.7 mph78%29.98 "HgN/A
8:00 AM66 °FOvercast.6 mph78%29.98 "HgN/A
7:00 AM66 °FOvercast.No wind78%29.95 "HgN/A
6:00 AM66 °FOvercast.2 mph83%29.95 "Hg4 mi
5:00 AM66 °FOvercast.5 mph83%29.95 "HgN/A
4:00 AM66 °FOvercast.6 mph83%29.95 "HgN/A
3:00 AM66 °FOvercast.5 mph83%29.98 "HgN/A
2:00 AM66 °FOvercast.5 mph83%30.01 "HgN/A
1:00 AM66 °FOvercast.5 mph83%30.01 "HgN/A
12:00 AM66 °FOvercast.7 mph83%30.01 "HgN/A
11:00 PM
Tue, May 26
66 °FOvercast.6 mph83%30.01 "HgN/A
10:00 PM66 °FOvercast.8 mph83%29.98 "HgN/A
9:00 PM66 °FPassing clouds.8 mph83%29.98 "HgN/A
8:00 PM66 °FClear.12 mph83%29.95 "Hg10 mi
Weather by CustomWeather, © 2015

See weather overviewHow to use our weather pages